Weather History for KBLH - October, 2012

Change the Weather History Date:

Thursday, October 11, 2012

  Actual Average Record
Temperature  
Mean Temperature 72 °F -  
Max Temperature 82 °F 91 °F 104 °F (1999)
Min Temperature 62 °F 61 °F 50 °F (2013)
Cooling Degree Days 6    
Growing Degree Days 22 (Base 50)    
Moisture  
Dew Point 51 °F    
Average Humidity 54    
Maximum Humidity 88    
Minimum Humidity 20    
Precipitation  
Precipitation 0.13 in - - ()
Sea Level Pressure  
Sea Level Pressure 29.79 in    
Wind  
Wind Speed 6 mph (South)    
Max Wind Speed 17 mph    
Max Gust Speed 26 mph    
Visibility 10 miles    
Events Rain , Thunderstorm    
Averages and records for this station are not official NWS values.
T = Trace of Precipitation, MM = Missing Value Source: NWS Daily Summary

Daily Weather History Graph

Daily Weather History Graph

Search for Another Location

Airport or City:

Trip Planner

Search our weather history database for the weather conditions in past years. The results will help you decide how hot, cold, wet, or windy it might be!

Date:

Astronomy

Oct. 11, 2012 Rise Set
Actual Time 6:40 AM PDT 6:09 PM PDT
Civil Twilight 6:15 AM PDT 6:34 PM PDT
Nautical Twilight 5:47 AM PDT 7:03 PM PDT
Astronomical Twilight 5:18 AM PDT 7:31 PM PDT
Moon 2:35 AM PDT (10/11) 3:38 PM PDT (10/11)
Length of Visible Light 12h 18m
Length of Day
11h 28m
Waning Crescent, 17% of the Moon is Illuminated
Oct 11
Waning Crescent
Oct 15
New
Oct 21
First Quarter
Oct 29
Full
Nov 6
Last Quarter

Hourly Weather History & Observations

Time (PDT) Temp. Dew Point Humidity Pressure Visibility Wind Dir Wind Speed Gust Speed Precip Events Conditions
12:52 AM 71.1 °F 48.9 °F 45% 29.75 in 10.0 mi SSE 4.6 mph - N/A   Clear
1:52 AM 69.1 °F 48.9 °F 49% 29.75 in 10.0 mi Calm Calm - N/A   Clear
2:52 AM 68.0 °F 51.1 °F 55% 29.74 in 10.0 mi Calm Calm - N/A   Clear
3:52 AM 69.1 °F 52.0 °F 54% 29.75 in 10.0 mi SSE 5.8 mph - N/A   Partly Cloudy
4:52 AM 69.1 °F 51.1 °F 53% 29.76 in 10.0 mi SE 13.8 mph - N/A   Mostly Cloudy
5:25 AM 66.2 °F 57.2 °F 73% 29.78 in 8.0 mi South 10.4 mph - 0.08 in Rain , Thunderstorm Light Rain
5:52 AM 66.0 °F 57.0 °F 73% 29.77 in 10.0 mi South 3.5 mph - 0.13 in Thunderstorm Overcast
6:05 AM 64.4 °F 59.0 °F 83% 29.78 in 6.0 mi Calm Calm - 0.02 in Rain Light Rain
6:29 AM 64.4 °F 60.8 °F 88% 29.80 in 10.0 mi Variable 5.8 mph - 0.02 in Thunderstorm Overcast
7:01 AM 62.6 °F 59.0 °F 88% 29.81 in 10.0 mi ENE 5.8 mph - N/A   Mostly Cloudy
8:52 AM 68.0 °F 57.0 °F 68% 29.82 in 10.0 mi NNE 5.8 mph - N/A   Clear
9:52 AM 70.0 °F 57.9 °F 65% 29.83 in 10.0 mi North 3.5 mph - N/A   Mostly Cloudy
10:52 AM 72.0 °F 55.9 °F 57% 29.82 in 10.0 mi Calm Calm - N/A   Mostly Cloudy
11:52 AM 75.0 °F 54.0 °F 48% 29.81 in 10.0 mi Calm Calm - N/A   Scattered Clouds
1:52 PM 81.0 °F 39.0 °F 22% 29.77 in 10.0 mi WSW 12.7 mph 24.2 mph N/A   Clear
2:52 PM 81.0 °F 36.0 °F 20% 29.77 in 10.0 mi SW 17.3 mph 26.5 mph N/A   Clear
4:52 PM 78.1 °F 39.9 °F 25% 29.77 in 10.0 mi SW 15.0 mph 23.0 mph N/A   Clear
6:52 PM 73.0 °F 42.1 °F 33% 29.80 in 10.0 mi WSW 16.1 mph - N/A   Clear
10:52 PM 69.1 °F 44.1 °F 40% 29.83 in 10.0 mi West 13.8 mph - N/A   Clear
11:52 PM 66.0 °F 46.9 °F 50% 29.86 in 10.0 mi SSE 13.8 mph - N/A   Mostly Cloudy